STARLINK-11203, 60117

Orbit data source: Space-Track

STARLINK-11203, 60117 is a payload satellite owned by SpaceX/Seattle (US) in LEO that was launched on Mon, 24 Jun 2024 UTC via an FALCON 9 launch vehicle from the Air Force Western Test Range (AFWTR). Payload-class satellites include a variety of spacecraft equipped with specific instruments for various scientific and technological missions. These include communications satellites like Starlink; space stations such as the ISS; scientific satellites like the Hubble; Earth observation satellites from companies like Planet Labs, Umbra, and HawkEye 360; GPS; miniature CubeSats for education and research; and military/defense satellites.

Loading next visibility...
Identifier
60117, 2024-118E
Orbit
LEO
Last TLE update
14 hours ago
Origin
Manufacturer
SpaceX/Seattle
Mission
Operational Commercial Communications
Bus & Motor
STARLINK V2M, Unknown motor
Mass
730 kg wet, ~700 kg dry
Launch date (UTC)
2024-06-24 (1 year ago)
Launch vehicle
FALCON 9
Launch site
Air Force Western Test Range (AFWTR)
Object type
Payload
Rocket body
Debris
Shape & HBR
Box + 2 Pan, 29 m
Radar Cross Section
36.964 m², Large (>1 m²)

Expand to show TLE details & history

TLE from 14 hours ago
0 STARLINK-11203
1 60117U 24118E   25181.82355391 -.00000463  00000-0  10338-5 0  9998
2 60117  53.1590  22.9613 0000790 106.5909 253.5195 15.69712464 58434
Epoch: 2025-06-30T19:45Z
TLE epoch observation values (Epoch: 2025-06-30T19:45:55.057Z)
Latitude
-0.0001°
Longitude
167.35399°
Altitude
360.786 km
Speed
7.694 km/s
True Right ascension
01h 31m 50s
True Declination
0° 00' 00"
Sunlit
Object was in daylight at epoch
Visualization orbit readout
Latitude
3.16728°
Longitude
-17.98769°
Altitude
360.074 km
Speed
7.695 km/s
Apparent Right ascension
11h 48m 47s
Apparent Declination
-19° 14' 17"
Sunlit
Object is in daylight
Visualization observer readout
Local Sidereal Time
21:54:16
Azimuth
301.665° NW
Elevation
-57.89°
Doppler factor
1
Orbital elements
Apogee altitude
360.513 km
Perigee altitude
359.448 km
Semi-major axis
6,738.118 km
Eccentricity
0.00008
Inclination
53.159°
RAAN
22.9613°
Arg. of periapsis
106.5909°
True anomaly
Unknown
Mean anomaly
253.5195°
Eccentric anomaly
Unknown
Mean motion
3.92406 °/min
Orbital period
91.74 mins
BSTAR
0.0000010338
Loading maneuver chart data...
Loading SW <> Apogee altitude chart data...
Loading historical data...
Loading historical data...
Loading historical data...
Loading historical data...
Loading historical data...
Loading historical data...
Loading historical data...

STARLINK-11203 Visibility forecast

Observer location: undefined°, undefined°

Span
Click to sort rows by Start time (UTC) header in descending order
Start Az.
Max El. time (UTC)
Max El. Az.
Max El.
End time (UTC)
End Az.
5 mins2025-07-01 15:47:51.155Z212.423° SW2025-07-01 15:50:51.155Z115.533° SE36.671°2025-07-01 15:52:51.155Z62.856° ENE
4 mins2025-07-01 22:13:51.155Z343.291° N2025-07-01 22:14:51.155Z14.989° NNE27.7°2025-07-01 22:17:51.155Z100.152° ESE
|